"Pseudo-MPEC" for ZTF02Uy = ZTF02rw = ZTF02V0

Created 2019 Feb 10 0:36:19 UT using Find_Orb

Click here for an explanation of pseudo-MPECs

 
 Astrometry: 
     ZTF02V0  C2019 02 08.23340909 02 15.04 +23 46 11.5    ~28Ku 17.84RUNEOCPI41
     ZTF02V0  C2019 02 08.23375609 02 19.67 +23 46 21.8    ~28Ku 17.84RUNEOCPI41
     ZTF02V0  C2019 02 08.23636809 02 55.51 +23 47 42.0    ~28Ku 17.74RUNEOCPI41
     ZTF02V0  C2019 02 08.23671509 03 00.11 +23 47 52.2    ~28Ku 17.74RUNEOCPI41
     ZTF02Uy  C2019 02 08.27188409 11 00.14 +24 02 19.2    ~28Ku 17.68RUNEOCPI41
     ZTF02Uy  C2019 02 08.27223109 11 04.98 +24 02 26.1    ~28Ku 17.68RUNEOCPI41
     ZTF02Uy  C2019 02 08.28378709 13 44.44 +24 05 43.2    ~28Ku 17.79RUNEOCPI41
     ZTF02Uy  C2019 02 08.28413409 13 49.33 +24 05 48.7    ~28Ku 17.79RUNEOCPI41
     ZTF02rw  C2019 02 09.35053109 41 17.90 +24 01 34.9    ~29NQ 17.54RUNEOCPI41
     ZTF02rw  C2019 02 09.35087809 41 23.82 +24 01 28.3    ~29NQ 17.54RUNEOCPI41
     ZTF02rw  C2019 02 09.35946909 43 51.81 +23 58 27.4    ~29NQ 17.41RUNEOCPI41
     ZTF02rw  C2019 02 09.35981509 43 57.70 +23 58 19.6    ~29NQ 17.41RUNEOCPI41

Station data:
(I41) Palomar Mountain--ZTF  (N33.357340 W116.859780)  US/California. 1.2-m
   f/2.44 Oschin Schmidt + CCD.

Orbital elements:  ZTF02Uy = ZTF02rw = ZTF02V0
   Perigee 2019 Feb 7.686506 +/- 0.000706 TT = 16:28:34 (JD 2458522.186506)
Epoch 2019 Feb  8.0 TT; AMR 43.208 +/- 0.661 m2/kg           Gray
M 115.70294954 +/- 0.25             (J2000 equator)
n 369.07513504 +/- 0.0238           Peri.  258.44106 +/- 0.047
a 41545.7861 +/- 1.79               Node    51.43662 +/- 0.0035
e   0.8001316 +/- 0.000207          Incl.   25.02255 +/- 0.0035
P1404.57m/0.975d           H 34.4   G  0.15   U 10.2
q 8303.68956 +/- 8.43    Q 74787.8827 +/- 10.5
From 12 observations 2019 Feb. 8-9 (27.0 hr); mean residual 0".740
Residuals in arcseconds: 
190208 I41 .302- .202+    190208 I41 .033+ .253-    190209 I41 .390- .497-
190208 I41 1.63- .237-    190208 I41 .980+ .038+    190209 I41 446µ+ .555-
190208 I41 2.06+ .264+    190208 I41 1.14- .089-    190209 I41 1.10+ .339+
190208 I41 .344+ .027+    190208 I41 .154- .184+    190209 I41 1.00- .675+

Ephemerides (geocentric):
Date (UTC) HH   RA              Dec         delta  elong  mag " sig PA
---- -- -- --  -------------   -----------  ------ -----  --- ---- ---
2019 02 09 00  07 49 50.718   +23 08 18.63   69818 155.4 18.8 45.5  84
2019 02 09 01  08 03 27.195   +23 38 11.37   72192 158.1 18.8 24.8  86
2019 02 09 02  08 16 25.439   +24 02 19.33   73782 160.7 18.8 9.25  93
2019 02 09 03  08 29 02.879   +24 21 43.91   74618 163.0 18.7 2.67  62
2019 02 09 04  08 41 34.462   +24 37 00.90   74715 165.2 18.7 10.7  83
2019 02 09 05  08 54 14.379   +24 48 26.49   74074 167.1 18.6 15.8  87
2019 02 09 06  09 07 17.568   +24 55 59.09   72685 168.7 18.5 17.7  90
2019 02 09 07  09 21 01.397   +24 59 17.10   70521 169.6 18.4 15.8  94
2019 02 09 08  09 35 48.016   +24 57 31.91   67542 169.7 18.3 9.27 102
2019 02 09 09  09 52 08.226   +24 49 11.73   63683 168.7 18.2 5.05  66
2019 02 09 10  10 10 48.724   +24 31 26.28   58851 166.3 18.1 29.3  89
2019 02 09 11  10 33 07.443   +23 58 42.99   52906 162.6 18.0 74.0  94
2019 02 09 12  11 01 31.226   +22 58 58.29   45632 157.0 17.9  161  98
2019 02 09 13  11 41 29.843   +21 00 40.77   36678 148.3 17.6  358 103
2019 02 09 14  12 49 45.939   +16 09 03.04   25423 132.1 17.3  990 109
2019 02 09 15  16 11 43.576   -05 34 57.84   11388  78.7 17.4 6071 114
2019 02 09 16  02 51 35.217   -03 38 39.62   15377  79.6 18.0 3735  65
2019 02 09 17  05 00 30.303   +10 53 41.05   28809 114.1 18.1 1010  68
2019 02 09 18  05 53 55.841   +15 55 37.29   39343 127.7 18.4  487  71
2019 02 09 19  06 27 30.844   +18 34 45.00   47784 135.9 18.6  284  74
2019 02 09 20  06 52 21.593   +20 15 32.24   54659 141.7 18.7  178  77
2019 02 09 21  07 12 26.883   +21 26 03.70   60275 146.2 18.8  114  79
2019 02 09 22  07 29 38.507   +22 18 29.44   64822 150.0 18.8 71.7  81
2019 02 09 23  07 44 58.027   +22 58 59.66   68424 153.3 18.8 41.3  84
2019 02 10 00  07 59 03.546   +23 31 01.85   71167 156.3 18.8 19.0  89
2019 02 10 01  08 12 21.049   +23 56 39.82   73107 158.9 18.8 2.72 128
2019 02 10 02  08 25 09.944   +24 17 09.49   74282 161.4 18.8 10.9  76
2019 02 10 03  08 37 46.148   +24 33 16.41   74712 163.6 18.7 20.3  83
2019 02 10 04  08 50 24.075   +24 45 24.31   74405 165.7 18.6 26.8  86
2019 02 10 05  09 03 18.193   +24 53 38.61   73357 167.5 18.5 30.3  88
2019 02 10 06  09 16 44.584   +24 57 45.92   71548 168.8 18.4 30.8  90
2019 02 10 07  09 31 02.918   +24 57 09.34   68945 169.5 18.3 27.4  93
2019 02 10 08  09 46 39.495   +24 50 36.88   65495 169.2 18.2 18.7  98
2019 02 10 09  10 04 12.622   +24 35 56.26   61118 167.6 18.1 2.99 146
2019 02 10 10  10 24 43.377   +24 08 57.92   55698 164.6 18.0 28.9  90
2019 02 10 11  10 50 00.178   +23 21 10.39   49061 160.0 17.9 86.2  96
2019 02 10 12  11 23 45.749   +21 52 22.28   40927 153.0 17.7  207 101
2019 02 10 13  12 15 36.266   +18 41 13.70   30821 141.2 17.5  527 106
2019 02 10 14  14 04 56.541   +08 43 07.41   17953 113.8 17.1 2042 113
2019 02 10 15  23 29 53.961   -21 31 58.22    9341  28.2 22?? 9143  77
2019 02 10 16  04 20 41.891   +06 47 22.00   23109 102.7 18.0 1484  66
2019 02 10 17  05 34 14.073   +14 18 24.40   34848 121.8 18.3  595  70
2019 02 10 18  06 14 47.638   +17 43 36.91   44144 131.8 18.5  320  73
2019 02 10 19  06 43 03.617   +19 44 34.40   51676 138.5 18.6  192  76
2019 02 10 20  07 05 07.862   +21 05 40.76   57831 143.6 18.8  118  79
2019 02 10 21  07 23 35.191   +22 04 17.64   62842 147.7 18.8 70.3  81
2019 02 10 22  07 39 45.467   +22 48 40.65   66858 151.2 18.8 37.3  85
2019 02 10 23  07 54 25.751   +23 23 16.26   69980 154.3 18.9 13.3  93
2019 02 11 00  08 08 06.795   +23 50 39.32   72277 157.1 18.8 5.63  58
2019 02 11 01  08 21 10.640   +24 12 23.80   73793 159.7 18.8 19.1  78
2019 02 11 02  08 33 54.591   +24 29 26.75   74558 162.0 18.8 29.5  82
2019 02 11 03  08 46 33.613   +24 42 20.25   74584 164.2 18.7 37.1  85
2019 02 11 04  08 59 22.027   +24 51 16.85   73873 166.2 18.6 42.2  87
2019 02 11 05  09 12 35.030   +24 56 10.75   72411 167.8 18.5 44.5  89
2019 02 11 06  09 26 30.424   +24 56 35.02   70172 169.0 18.4 43.6  91
2019 02 11 07  09 41 31.078   +24 51 33.37   67113 169.3 18.3 38.7  94
2019 02 11 08  09 58 09.018   +24 39 22.05   63166 168.4 18.2 27.9  97
2019 02 11 09  10 17 13.189   +24 16 50.00   58236 166.3 18.1 7.70 114
2019 02 11 10  10 40 06.075   +23 37 43.87   52178 162.5 18.0 30.9  92
2019 02 11 11  11 09 25.225   +22 28 25.68   44766 156.8 17.8  107  99
2019 02 11 12  11 51 12.251   +20 12 42.22   35633 147.7 17.6  285 104
2019 02 11 13  13 04 35.080   +14 33 51.26   24135 130.2 17.2  894 110
2019 02 11 14  17 06 48.562   -11 47 09.86   10217  66.0 17.9 6374 112
2019 02 11 15  03 13 10.394   -00 47 20.65   16786  83.6 18.0 2610  65
2019 02 11 16  05 08 20.121   +11 58 13.36   29876 114.3 18.2  768  69
2019 02 11 17  05 59 30.988   +16 37 15.80   40159 127.2 18.4  370  72
2019 02 11 18  06 32 23.886   +19 06 38.63   48422 135.1 18.6  208  75
2019 02 11 19  06 56 58.886   +20 41 38.05   55161 140.8 18.7  122  78
2019 02 11 20  07 16 58.785   +21 48 00.74   60663 145.3 18.8 69.3  81
2019 02 11 21  07 34 09.936   +22 37 07.36   65112 149.0 18.9 33.3  86
2019 02 11 22  07 49 31.667   +23 14 45.96   68627 152.3 18.9 7.88 104
2019 02 11 23  08 03 41.059   +23 44 12.34   71289 155.2 18.9 12.5  70
2019 02 12 00  08 17 03.612   +24 07 23.20   73153 157.9 18.8 27.1  79
2019 02 12 01  08 29 58.524   +24 25 29.52   74254 160.4 18.8 38.5  82
2019 02 12 02  08 42 41.665   +24 39 12.91   74613 162.7 18.7 47.1  84
2019 02 12 03  08 55 27.526   +24 48 53.44   74235 164.7 18.7 53.3  86
2019 02 12 04  09 08 30.772   +24 54 32.59   73114 166.6 18.6 57.1  88
2019 02 12 05  09 22 07.832   +24 55 52.20   71230 168.1 18.4 58.4  90
2019 02 12 06  09 36 38.952   +24 52 08.85   68548 168.9 18.3 56.4  92
2019 02 12 07  09 52 31.400   +24 42 00.75   65012 168.8 18.2 50.0  95